TimeAKDT,TemperatureF,Dew PointF,Humidity,Sea Level PressureIn,VisibilityMPH,Wind Direction,Wind SpeedMPH,Gust SpeedMPH,PrecipitationIn,Events,Conditions,WindDirDegrees,DateUTC
12:14 AM,59.0,53.6,82,30.09,10.0,East,6.9,-,N/A,,Overcast,100,2013-07-20 08:14:00
12:54 AM,57.9,54.0,87,30.10,10.0,East,5.8,-,N/A,,Overcast,100,2013-07-20 08:54:00
1:28 AM,57.2,53.6,88,30.09,10.0,East,4.6,-,N/A,,Overcast,80,2013-07-20 09:28:00
1:54 AM,57.0,54.0,89,30.09,10.0,East,6.9,-,N/A,,Overcast,90,2013-07-20 09:54:00
2:27 AM,57.2,53.6,88,30.08,10.0,East,4.6,-,N/A,,Overcast,90,2013-07-20 10:27:00
2:54 AM,57.0,54.0,89,30.09,10.0,ESE,3.5,-,N/A,,Overcast,120,2013-07-20 10:54:00
3:08 AM,57.2,53.6,88,30.08,10.0,ESE,3.5,-,N/A,,Overcast,120,2013-07-20 11:08:00
3:39 AM,57.2,53.6,88,30.07,10.0,Calm,Calm,-,N/A,,Overcast,0,2013-07-20 11:39:00
3:54 AM,57.0,54.0,89,30.08,10.0,East,5.8,-,N/A,,Overcast,90,2013-07-20 11:54:00
4:10 AM,57.2,53.6,88,30.07,10.0,ESE,4.6,-,N/A,,Overcast,110,2013-07-20 12:10:00
4:54 AM,57.0,54.0,89,30.08,10.0,ESE,4.6,-,N/A,,Overcast,120,2013-07-20 12:54:00
5:54 AM,57.0,54.0,89,30.07,10.0,Calm,Calm,-,N/A,,Overcast,0,2013-07-20 13:54:00
6:54 AM,57.0,54.0,89,30.07,10.0,ESE,3.5,-,N/A,,Overcast,110,2013-07-20 14:54:00
7:54 AM,57.9,53.1,84,30.07,10.0,ESE,6.9,-,N/A,,Overcast,120,2013-07-20 15:54:00
8:54 AM,57.9,54.0,87,30.06,10.0,ESE,5.8,-,N/A,,Overcast,110,2013-07-20 16:54:00
9:07 AM,57.2,53.6,88,30.04,10.0,ESE,5.8,-,N/A,,Overcast,110,2013-07-20 17:07:00
9:54 AM,57.9,54.0,87,30.05,10.0,SE,6.9,-,N/A,,Overcast,130,2013-07-20 17:54:00
10:54 AM,59.0,54.0,83,30.03,10.0,SE,6.9,-,N/A,,Overcast,130,2013-07-20 18:54:00
11:36 AM,59.0,53.6,82,30.03,10.0,East,4.6,-,N/A,,Overcast,100,2013-07-20 19:36:00
11:54 AM,60.1,55.0,83,30.04,10.0,ESE,8.1,-,N/A,,Overcast,110,2013-07-20 19:54:00
12:08 PM,57.2,55.4,94,30.02,10.0,SE,8.1,-,N/A,,Overcast,140,2013-07-20 20:08:00
12:54 PM,60.1,55.0,83,30.02,10.0,ESE,6.9,-,N/A,,Overcast,110,2013-07-20 20:54:00
1:06 PM,59.0,55.4,88,30.00,10.0,SE,9.2,-,N/A,,Overcast,130,2013-07-20 21:06:00
1:28 PM,60.8,55.4,82,30.00,10.0,SE,9.2,-,N/A,,Overcast,130,2013-07-20 21:28:00
1:54 PM,62.1,55.0,78,30.00,10.0,SE,9.2,-,N/A,,Overcast,130,2013-07-20 21:54:00
2:54 PM,61.0,54.0,78,29.98,10.0,SE,5.8,-,N/A,,Overcast,130,2013-07-20 22:54:00
3:12 PM,60.8,53.6,77,29.97,10.0,ESE,6.9,-,N/A,,Overcast,110,2013-07-20 23:12:00
3:50 PM,60.8,53.6,77,29.96,10.0,East,5.8,-,N/A,,Overcast,100,2013-07-20 23:50:00
3:54 PM,61.0,54.0,78,29.97,10.0,ESE,6.9,-,N/A,,Overcast,120,2013-07-20 23:54:00
4:29 PM,60.8,53.6,77,29.95,10.0,SE,11.5,18.4,N/A,,Overcast,130,2013-07-21 00:29:00
4:49 PM,60.8,53.6,77,29.95,10.0,ESE,15.0,20.7,N/A,,Overcast,110,2013-07-21 00:49:00
4:54 PM,60.1,54.0,80,29.96,10.0,ESE,13.8,21.9,N/A,,Overcast,120,2013-07-21 00:54:00
5:46 PM,60.8,53.6,77,29.94,10.0,East,9.2,-,N/A,,Overcast,90,2013-07-21 01:46:00
5:54 PM,60.1,54.0,80,29.94,10.0,ESE,10.4,-,N/A,,Overcast,110,2013-07-21 01:54:00
6:32 PM,60.8,53.6,77,29.93,10.0,ENE,10.4,16.1,0.00,,Mostly Cloudy,60,2013-07-21 02:32:00
6:54 PM,60.1,55.0,83,29.94,10.0,Variable,6.9,-,0.00,Rain,Light Rain,0,2013-07-21 02:54:00
7:08 PM,60.8,55.4,82,29.92,10.0,Variable,6.9,19.6,0.00,,Overcast,0,2013-07-21 03:08:00
7:54 PM,59.0,55.0,87,29.93,10.0,Variable,3.5,-,0.00,,Overcast,0,2013-07-21 03:54:00
8:18 PM,57.2,55.4,94,29.91,10.0,ESE,8.1,-,N/A,,Overcast,120,2013-07-21 04:18:00
8:54 PM,57.9,55.9,93,29.91,10.0,East,4.6,-,N/A,,Overcast,90,2013-07-21 04:54:00
9:54 PM,-9999,-9999,N/A,29.91,10.0,East,6.9,-,N/A,,Overcast,90,2013-07-21 05:54:00
10:54 PM,59.0,55.0,87,29.90,10.0,ENE,6.9,-,N/A,,Overcast,60,2013-07-21 06:54:00
11:54 PM,57.0,55.0,93,29.90,10.0,ESE,5.8,-,N/A,,Overcast,120,2013-07-21 07:54:00